GW4758 Weather Reports


time (UTC)temp
C
wind
direction
speed
KPH
gust
KPH
rain 1hr
cm
rain 24hr
cm
rain mn
cm
humidity
%
barometer
mb
20260906071557 21 0 0.0 0.0 0.00 0.08 0.00 91 1011.8
20260906070104 21 0 0.0 0.0 0.00 0.08 0.00 91 1011.8
20260906064559 22 0 0.0 0.0 0.00 0.08 0.00 91 1012.1
20260906063058 22 0 0.0 0.0 0.00 0.08 0.00 90 1012.3
20260906061558 22 0 0.0 0.0 0.00 0.08 0.00 91 1012.6
20260906060054 22 0 0.0 0.0 0.00 0.08 0.00 93 1012.6
20260906054610 22 0 0.0 0.0 0.00 0.08 0.00 92 1012.7
20260906053057 22 0 0.0 0.0 0.00 0.08 0.00 91 1012.7
20260906051605 22 0 0.0 0.0 0.00 0.08 0.00 92 1012.8
20260906050108 22 0 0.0 0.0 0.00 0.08 0.00 91 1012.9
20260906044603 22 0 0.0 0.0 0.00 0.08 0.00 92 1013.1
20260906043058 22 0 0.0 0.0 0.00 0.08 0.00 93 1013.0
20260906041604 22 0 0.0 0.0 0.00 0.08 0.00 93 1013.1
20260906040106 23 0 0.0 0.0 0.00 0.08 0.00 91 1013.4
20260906034608 23 0 0.0 0.0 0.00 0.08 0.08 92 1013.5
20260906033107 23 0 0.0 0.0 0.00 0.08 0.08 92 1013.4
20260906031600 23 0 0.0 0.0 0.00 0.08 0.08 90 1013.4
20260906030104 23 0 0.0 0.0 0.00 0.08 0.08 92 1013.4
20260906024603 23 0 0.0 0.0 0.00 0.08 0.08 92 1013.2
20260906023104 23 0 0.0 0.0 0.00 0.08 0.08 92 1013.1
20260906021602 23 0 0.0 0.0 0.00 0.08 0.08 91 1013.0
20260906020106 23 0 0.0 0.0 0.00 0.08 0.08 89 1012.9
20260906014649 24 0 0.0 3.2 0.00 0.08 0.08 89 1013.0
20260906013108 23 0 0.0 0.0 0.00 0.08 0.08 91 1012.9
20260906011603 24 0 0.0 1.6 0.00 0.08 0.08 91 1012.7
20260906010105 24 0 0.0 0.0 0.00 0.08 0.08 90 1012.7
20260906004612 25 0 0.0 0.0 0.00 0.08 0.08 87 1012.7
20260906003115 25 0 0.0 0.0 0.00 0.08 0.08 86 1012.5
20260906001605 25 0 0.0 0.0 0.00 0.08 0.08 85 1012.2
20260906000056 26 0 0.0 0.0 0.00 0.08 0.08 83 1012.1
20260905234609 27 0 0.0 0.0 0.00 0.08 0.08 81 1011.9
20260905233055 28 0 0.0 0.0 0.00 0.08 0.08 76 1011.9
20260905231608 28 0 0.0 0.0 0.00 0.08 0.08 73 1011.8
20260905230111 30 314 0.0 1.6 0.00 0.08 0.08 71 1011.9
20260905224613 29 0 0.0 1.6 0.00 0.08 0.08 73 1011.8
20260905223057 28 0 0.0 1.6 0.00 0.08 0.08 74 1011.8
20260905221616 28 0 0.0 8.0 0.00 0.08 0.08 75 1011.8
20260905220108 27 0 1.6 8.0 0.00 0.08 0.08 76 1011.8
20260905214603 27 290 3.2 12.9 0.00 0.10 0.08 78 1012.0
20260905213106 27 200 1.6 12.9 0.00 0.10 0.08 79 1012.4
20260905211603 27 229 4.8 14.5 0.00 0.10 0.08 80 1012.4
20260905210059 26 233 3.2 12.9 0.00 0.10 0.08 83 1012.5
20260905204606 25 0 0.0 3.2 0.00 0.10 0.08 86 1012.4
20260905203104 25 281 0.0 6.4 0.00 0.10 0.08 87 1012.6
20260905201618 24 244 0.0 9.7 0.00 0.10 0.08 90 1012.5
20260905200105 24 0 0.0 3.2 0.00 0.10 0.08 90 1012.6
20260905194601 25 237 0.0 1.6 0.00 0.10 0.08 90 1013.0
20260905193114 25 236 0.0 1.6 0.00 0.10 0.08 89 1012.9
20260905191606 24 0 0.0 1.6 0.00 0.10 0.08 89 1012.6
20260905184605 23 0 0.0 0.0 0.08 0.10 0.08 94 1012.4
20260905183057 22 0 0.0 0.0 0.08 0.10 0.08 94 1012.9
20260905181611 22 0 0.0 0.0 0.08 0.10 0.08 93 1013.1
20260905174605 26 281 37.0 59.5 0.00 0.03 0.00 72 1014.5
20260905173056 33 321 6.4 11.3 0.00 0.03 0.00 54 1013.3
20260905171556 33 281 8.0 20.9 0.00 0.03 0.00 54 1013.4
20260905170101 34 342 3.2 11.3 0.00 0.03 0.00 54 1013.8
20260905164558 33 283 4.8 20.9 0.00 0.03 0.00 56 1013.8
20260905163107 33 237 6.4 19.3 0.00 0.03 0.00 57 1013.9
20260905161602 33 245 4.8 12.9 0.00 0.03 0.00 58 1014.0
20260905160101 33 304 4.8 12.9 0.00 0.03 0.00 58 1014.3
20260905154616 32 343 4.8 14.5 0.00 0.03 0.00 62 1014.2
20260905153104 32 18 3.2 9.7 0.00 0.03 0.00 62 1014.1
20260905151605 32 288 6.4 12.9 0.00 0.03 0.00 62 1014.2
20260905150104 32 0 3.2 9.7 0.00 0.03 0.00 66 1014.4
20260905144603 31 160 1.6 9.7 0.00 0.03 0.00 68 1014.5
20260905143058 30 230 1.6 9.7 0.00 0.03 0.00 72 1014.6
20260905141603 29 231 4.8 8.0 0.00 0.03 0.00 74 1014.5
20260905140106 28 277 4.8 8.0 0.00 0.03 0.00 76 1014.3
20260905134601 27 212 4.8 8.0 0.00 0.03 0.00 79 1014.6
20260905133056 27 248 1.6 8.0 0.00 0.03 0.00 81 1014.7
20260905131607 26 221 3.2 6.4 0.00 0.03 0.00 83 1014.7
20260905124605 25 243 3.2 4.8 0.00 0.03 0.00 87 1014.9
20260905123101 23 270 3.2 6.4 0.00 0.03 0.00 89 1014.8
20260905121605 23 0 0.0 0.0 0.00 0.03 0.00 88 1014.7
20260905120105 22 0 0.0 0.0 0.00 0.03 0.00 93 1014.6
20260905114602 21 242 3.2 4.8 0.00 0.03 0.00 94 1014.4
20260905113101 21 254 0.0 3.2 0.00 0.03 0.00 95 1014.4
20260905111610 21 0 0.0 0.0 0.00 0.03 0.00 95 1014.2
20260905104614 21 0 0.0 0.0 0.00 0.03 0.00 95 1013.7
20260905103105 21 0 0.0 0.0 0.00 0.03 0.00 94 1013.8
20260905101604 21 0 0.0 0.0 0.00 0.03 0.00 95 1013.6
20260905100100 21 0 0.0 0.0 0.00 0.03 0.00 94 1013.4
20260905094555 21 0 0.0 0.0 0.00 0.03 0.00 94 1013.5
20260905093105 21 0 0.0 0.0 0.00 0.03 0.00 93 1013.4
20260905091631 22 0 0.0 3.2 0.00 0.03 0.00 92 1013.3
20260905090058 22 32 0.0 1.6 0.00 0.03 0.00 92 1013.4
20260905084611 22 0 0.0 1.6 0.00 0.03 0.00 91 1013.6
20260905083103 22 0 0.0 0.0 0.00 0.03 0.00 90 1013.7
20260905081605 22 0 0.0 1.6 0.00 0.03 0.00 90 1013.8
20260905074631 23 0 0.0 0.0 0.00 0.03 0.00 90 1014.3
20260905073104 23 32 1.6 1.6 0.00 0.03 0.00 91 1014.3